VLG6UA LEBL-LEMH

Flight info

Callsign VLG6UA
Flight time 0h 28m
Altitude 19000
Route DUNES Q700 SARGO
Aircraft A321/M-SDE3FGHIRWY/LB1

Departure

Time 2026-04-27 20:38
Airport Josep Tarradellas Barcelona-El Prat Airport (LEBL)

Arrival

Time 2026-04-27 21:06
Airport Menorca Airport (LEMH)
Time Latitude Longitude Altitude Speed Heading
2026-04-27 20:20 41.29151 2.07944 19 ft 0 kts 155°
2026-04-27 20:26 41.29161 2.07938 19 ft 3 kts 155°
2026-04-27 20:27 41.29179 2.07927 20 ft 3 kts 155°
2026-04-27 20:27 41.29197 2.07917 21 ft 3 kts 155°
2026-04-27 20:27 41.29213 2.07905 22 ft 3 kts 124°
2026-04-27 20:27 41.29218 2.07886 22 ft 3 kts 74°
2026-04-27 20:28 41.29214 2.07872 22 ft 2 kts 65°
2026-04-27 20:28 41.29207 2.07851 21 ft 2 kts 65°
2026-04-27 20:28 41.29206 2.07848 21 ft 0 kts 65°
2026-04-27 20:31 41.29217 2.07879 22 ft 8 kts 66°
2026-04-27 20:31 41.29247 2.07970 19 ft 13 kts 65°
2026-04-27 20:31 41.29291 2.08101 19 ft 17 kts 67°
2026-04-27 20:31 41.29343 2.08254 20 ft 19 kts 59°
2026-04-27 20:32 41.29342 2.08382 19 ft 12 kts 133°
2026-04-27 20:32 41.29282 2.08437 20 ft 9 kts 152°
2026-04-27 20:32 41.29237 2.08464 21 ft 6 kts 159°
2026-04-27 20:32 41.29191 2.08487 20 ft 8 kts 159°
2026-04-27 20:33 41.29127 2.08521 19 ft 13 kts 157°
2026-04-27 20:33 41.29024 2.08584 18 ft 18 kts 155°
2026-04-27 20:33 41.28901 2.08657 16 ft 20 kts 154°
2026-04-27 20:33 41.28872 2.08728 17 ft 8 kts 77°
2026-04-27 20:34 41.28896 2.08825 16 ft 14 kts 69°
2026-04-27 20:34 41.28943 2.08971 17 ft 20 kts 67°
2026-04-27 20:34 41.29005 2.09153 17 ft 21 kts 62°
2026-04-27 20:34 41.29065 2.09322 19 ft 19 kts 66°
2026-04-27 20:35 41.29119 2.09479 17 ft 19 kts 64°
2026-04-27 20:35 41.29175 2.09639 17 ft 20 kts 66°
2026-04-27 20:35 41.29231 2.09808 17 ft 20 kts 66°
2026-04-27 20:35 41.29292 2.09980 17 ft 21 kts 64°
2026-04-27 20:36 41.29299 2.10154 14 ft 16 kts 104°
2026-04-27 20:36 41.29295 2.10178 14 ft 2 kts 104°
2026-04-27 20:36 41.29289 2.10209 14 ft 5 kts 104°
2026-04-27 20:36 41.29281 2.10248 13 ft 0 kts 104°
2026-04-27 20:37 41.29278 2.10258 13 ft 5 kts 110°
2026-04-27 20:37 41.29212 2.10293 15 ft 5 kts 210°
2026-04-27 20:37 41.29204 2.10268 17 ft 5 kts 245°
2026-04-27 20:37 41.29118 2.10027 18 ft 64 kts 244°
2026-04-27 20:38 41.28835 2.09199 18 ft 130 kts 246°
2026-04-27 20:38 41.28399 2.07927 130 ft 169 kts 245°
2026-04-27 20:38 41.27823 2.06594 841 ft 164 kts 225°
2026-04-27 20:38 41.26865 2.05853 1566 ft 161 kts 192°
2026-04-27 20:39 41.25760 2.05940 2127 ft 160 kts 168°
2026-04-27 20:39 41.24671 2.06232 2679 ft 160 kts 169°
2026-04-27 20:39 41.23501 2.06279 2967 ft 179 kts 182°
2026-04-27 20:39 41.22154 2.06155 3198 ft 202 kts 184°
2026-04-27 20:40 41.20703 2.06018 3457 ft 220 kts 182°
2026-04-27 20:40 41.19153 2.05902 3944 ft 226 kts 181°
2026-04-27 20:40 41.17586 2.05649 4650 ft 229 kts 197°
2026-04-27 20:40 41.16100 2.04738 5165 ft 243 kts 208°
2026-04-27 20:41 41.14593 2.03654 5811 ft 249 kts 207°
2026-04-27 20:41 41.13558 2.02931 6293 ft 251 kts 206°
2026-04-27 20:41 41.11994 2.01858 6996 ft 254 kts 206°
2026-04-27 20:41 41.10396 2.00813 7587 ft 263 kts 200°
2026-04-27 20:42 41.08530 2.00493 7912 ft 279 kts 171°
2026-04-27 20:42 41.06726 2.01423 8490 ft 284 kts 142°
2026-04-27 20:42 41.05454 2.03405 9167 ft 287 kts 114°
2026-04-27 20:42 41.04895 2.05949 9861 ft 290 kts 102°
2026-04-27 20:43 41.04462 2.08592 10390 ft 301 kts 102°
2026-04-27 20:43 41.04013 2.11400 10549 ft 324 kts 101°
2026-04-27 20:43 41.03533 2.14413 10787 ft 342 kts 102°
2026-04-27 20:43 41.03040 2.17487 11330 ft 348 kts 102°
2026-04-27 20:44 41.02525 2.20642 11962 ft 352 kts 102°
2026-04-27 20:44 41.01996 2.23828 12609 ft 356 kts 102°
2026-04-27 20:44 41.01453 2.27078 13257 ft 359 kts 102°
2026-04-27 20:44 41.00911 2.30334 13901 ft 363 kts 102°
2026-04-27 20:45 41.00373 2.33570 14447 ft 367 kts 102°
2026-04-27 20:45 40.99821 2.36885 15012 ft 371 kts 102°
2026-04-27 20:45 40.99262 2.40238 15589 ft 374 kts 103°
2026-04-27 20:45 40.98696 2.43615 16163 ft 378 kts 103°
2026-04-27 20:46 40.98122 2.47036 16732 ft 382 kts 103°
2026-04-27 20:46 40.97543 2.50475 17302 ft 386 kts 103°
2026-04-27 20:46 40.96956 2.53954 17852 ft 389 kts 103°
2026-04-27 20:46 40.96363 2.57473 18403 ft 393 kts 103°
2026-04-27 20:47 40.95767 2.61014 18870 ft 397 kts 103°
2026-04-27 20:47 40.95165 2.64593 19069 ft 399 kts 103°
2026-04-27 20:47 40.94562 2.68172 19126 ft 398 kts 103°
2026-04-27 20:47 40.93958 2.71746 19126 ft 401 kts 103°
2026-04-27 20:48 40.93333 2.75423 19117 ft 419 kts 103°
2026-04-27 20:48 40.92678 2.79260 19125 ft 434 kts 103°
2026-04-27 20:48 40.91925 2.83139 19107 ft 438 kts 110°
2026-04-27 20:48 40.90527 2.86705 19128 ft 438 kts 126°
2026-04-27 20:49 40.88692 2.89948 19109 ft 442 kts 128°
2026-04-27 20:49 40.86823 2.93183 19122 ft 443 kts 128°
2026-04-27 20:49 40.84951 2.96404 19125 ft 443 kts 128°
2026-04-27 20:49 40.83070 2.99635 19119 ft 443 kts 128°
2026-04-27 20:50 40.81195 3.02854 19124 ft 443 kts 128°
2026-04-27 20:50 40.79313 3.06087 19119 ft 443 kts 128°
2026-04-27 20:50 40.77439 3.09306 19122 ft 443 kts 128°
2026-04-27 20:50 40.75559 3.12534 19117 ft 443 kts 128°
2026-04-27 20:51 40.73680 3.15761 19118 ft 443 kts 128°
2026-04-27 20:51 40.71811 3.18977 19121 ft 443 kts 128°
2026-04-27 20:51 40.69959 3.22159 19110 ft 443 kts 128°
2026-04-27 20:51 40.68097 3.25349 19118 ft 443 kts 128°
2026-04-27 20:52 40.66221 3.28568 19125 ft 443 kts 128°
2026-04-27 20:52 40.64338 3.31789 19119 ft 443 kts 128°
2026-04-27 20:52 40.62447 3.35001 19126 ft 443 kts 128°
2026-04-27 20:52 40.60558 3.38204 19118 ft 443 kts 128°
2026-04-27 20:53 40.58662 3.41417 18919 ft 446 kts 128°
2026-04-27 20:53 40.56775 3.44616 18442 ft 438 kts 128°
2026-04-27 20:53 40.54957 3.47701 18296 ft 412 kts 128°
2026-04-27 20:53 40.53261 3.50582 17901 ft 389 kts 128°
2026-04-27 20:54 40.50097 3.55947 16481 ft 368 kts 128°
2026-04-27 20:54 40.48558 3.58555 15922 ft 357 kts 128°
2026-04-27 20:54 40.47038 3.61131 15470 ft 355 kts 128°
2026-04-27 20:55 40.45534 3.63674 15039 ft 352 kts 128°
2026-04-27 20:55 40.44033 3.66204 14609 ft 349 kts 128°
2026-04-27 20:55 40.42541 3.68713 14183 ft 347 kts 128°
2026-04-27 20:55 40.41065 3.71198 13735 ft 345 kts 127°
2026-04-27 20:56 40.39596 3.73673 13302 ft 342 kts 127°
2026-04-27 20:56 40.38142 3.76122 12895 ft 338 kts 127°
2026-04-27 20:56 40.36707 3.78537 12479 ft 335 kts 127°
2026-04-27 20:56 40.35282 3.80937 12084 ft 332 kts 127°
2026-04-27 20:57 40.33869 3.83312 11664 ft 329 kts 127°
2026-04-27 20:57 40.32470 3.85662 11257 ft 326 kts 127°
2026-04-27 20:57 40.31076 3.88000 10860 ft 324 kts 127°
2026-04-27 20:57 40.29690 3.90322 10469 ft 322 kts 127°
2026-04-27 20:58 40.28341 3.92579 10212 ft 310 kts 127°
2026-04-27 20:58 40.27020 3.94786 9839 ft 301 kts 127°
2026-04-27 20:58 40.25748 3.96911 9659 ft 295 kts 127°
2026-04-27 20:58 40.24482 3.99024 9230 ft 296 kts 127°
2026-04-27 20:59 40.23216 4.01135 8888 ft 293 kts 127°
2026-04-27 20:59 40.21953 4.03239 8522 ft 291 kts 127°
2026-04-27 20:59 40.20718 4.05292 8021 ft 285 kts 127°
2026-04-27 20:59 40.19501 4.07314 7443 ft 280 kts 127°
2026-04-27 21:00 40.18302 4.09310 6997 ft 278 kts 127°
2026-04-27 21:00 40.17112 4.11295 6572 ft 278 kts 127°
2026-04-27 21:00 40.15932 4.13262 6229 ft 277 kts 127°
2026-04-27 21:00 40.14742 4.15247 5783 ft 278 kts 127°
2026-04-27 21:01 40.13549 4.17231 5368 ft 271 kts 127°
2026-04-27 21:01 40.12406 4.19128 4753 ft 266 kts 127°
2026-04-27 21:01 40.11266 4.21018 4296 ft 264 kts 127°
2026-04-27 21:01 40.10133 4.22895 3877 ft 263 kts 128°
2026-04-27 21:02 40.08812 4.24535 3471 ft 262 kts 146°
2026-04-27 21:02 40.07220 4.25487 3345 ft 240 kts 164°
2026-04-27 21:02 40.05618 4.25766 3385 ft 226 kts 179°
2026-04-27 21:02 40.04086 4.25541 3379 ft 220 kts 188°
2026-04-27 21:03 40.02570 4.25227 3282 ft 220 kts 188°
2026-04-27 21:03 40.01066 4.24917 3037 ft 218 kts 188°
2026-04-27 21:03 39.99581 4.24610 2796 ft 215 kts 186°
2026-04-27 21:03 39.98125 4.24308 2471 ft 206 kts 187°
2026-04-27 21:04 39.96741 4.24023 2199 ft 197 kts 187°
2026-04-27 21:04 39.95442 4.23756 1981 ft 182 kts 187°
2026-04-27 21:04 39.94246 4.23510 1724 ft 166 kts 188°
2026-04-27 21:04 39.93155 4.23285 1483 ft 155 kts 187°
2026-04-27 21:05 39.92102 4.23068 1300 ft 151 kts 187°
2026-04-27 21:05 39.91073 4.22857 1137 ft 149 kts 187°
2026-04-27 21:05 39.90084 4.22648 878 ft 147 kts 188°
2026-04-27 21:05 39.89068 4.22440 714 ft 148 kts 187°
2026-04-27 21:06 39.88051 4.22229 518 ft 149 kts 187°
2026-04-27 21:06 39.87039 4.22025 329 ft 147 kts 187°
2026-04-27 21:06 39.86135 4.21839 306 ft 111 kts 189°
2026-04-27 21:06 39.85648 4.21753 293 ft 41 kts 179°
2026-04-27 21:07 39.85491 4.21804 288 ft 15 kts 161°
2026-04-27 21:07 39.85403 4.21874 282 ft 15 kts 107°
2026-04-27 21:07 39.85446 4.21935 284 ft 9 kts 354°
2026-04-27 21:07 39.85511 4.21939 285 ft 9 kts
2026-04-27 21:08 39.85572 4.21954 287 ft 9 kts 12°
2026-04-27 21:08 39.85674 4.21985 292 ft 22 kts 13°
2026-04-27 21:08 39.85838 4.22020 296 ft 24 kts
2026-04-27 21:08 39.85999 4.22051 296 ft 24 kts
2026-04-27 21:09 39.86169 4.22086 299 ft 25 kts
2026-04-27 21:09 39.86346 4.22117 296 ft 26 kts
2026-04-27 21:09 39.86514 4.22159 294 ft 20 kts 14°
2026-04-27 21:09 39.86538 4.22263 294 ft 12 kts 128°
2026-04-27 21:10 39.86493 4.22312 292 ft 3 kts 145°
2026-04-27 21:10 39.86478 4.22345 288 ft 6 kts 107°
2026-04-27 21:10 39.86469 4.22397 286 ft 5 kts 100°
2026-04-27 21:10 39.86469 4.22399 286 ft 0 kts 100°